Year,Month,Day,Hour,Minute,Value (Times are PST for temperature in C)
2007,03,14,00,00,1.60
2007,03,14,00,01,1.60
2007,03,14,00,02,1.60
2007,03,14,00,03,1.60
2007,03,14,00,04,1.60
2007,03,14,00,05,1.60
2007,03,14,00,06,1.50
2007,03,14,00,07,1.50
2007,03,14,00,08,1.50
2007,03,14,00,09,1.50
2007,03,14,00,10,1.50
2007,03,14,00,11,1.50
2007,03,14,00,12,1.50
2007,03,14,00,13,1.50
2007,03,14,00,14,1.50
2007,03,14,00,15,1.60
2007,03,14,00,16,1.60
2007,03,14,00,17,1.70
2007,03,14,00,18,1.70
2007,03,14,00,19,1.70
2007,03,14,00,20,1.80
2007,03,14,00,21,1.80
2007,03,14,00,22,1.80
2007,03,14,00,23,1.80
2007,03,14,00,24,1.90
2007,03,14,00,25,1.90
2007,03,14,00,26,2.00
2007,03,14,00,27,2.00
2007,03,14,00,28,2.10
2007,03,14,00,29,2.20
2007,03,14,00,30,2.30
2007,03,14,00,31,2.50
2007,03,14,00,32,2.70
2007,03,14,00,33,2.70
2007,03,14,00,34,2.80
2007,03,14,00,35,2.80
2007,03,14,00,36,2.80
2007,03,14,00,37,2.80
2007,03,14,00,38,2.70
2007,03,14,00,39,2.70
2007,03,14,00,40,2.60
2007,03,14,00,41,2.50
2007,03,14,00,42,2.50
2007,03,14,00,43,2.40
2007,03,14,00,44,2.40
2007,03,14,00,45,2.30
2007,03,14,00,46,2.30
2007,03,14,00,47,2.30
2007,03,14,00,48,2.20
2007,03,14,00,49,2.20
2007,03,14,00,50,2.20
2007,03,14,00,51,2.20
2007,03,14,00,52,2.10
2007,03,14,00,53,2.10
2007,03,14,00,54,2.10
2007,03,14,00,55,2.10
2007,03,14,00,56,2.10
2007,03,14,00,57,2.20
2007,03,14,00,58,2.30
2007,03,14,00,59,2.40
2007,03,14,01,00,2.50
2007,03,14,01,01,2.60
2007,03,14,01,02,2.70
2007,03,14,01,03,2.70
2007,03,14,01,04,2.70
2007,03,14,01,05,2.70
2007,03,14,01,06,2.70
2007,03,14,01,07,2.70
2007,03,14,01,08,2.70
2007,03,14,01,09,2.70
2007,03,14,01,10,2.70
2007,03,14,01,11,2.60
2007,03,14,01,12,2.60
2007,03,14,01,13,2.60
2007,03,14,01,14,2.70
2007,03,14,01,15,2.60
2007,03,14,01,16,2.60
2007,03,14,01,17,2.60
2007,03,14,01,18,2.70
2007,03,14,01,19,2.70
2007,03,14,01,20,2.70
2007,03,14,01,21,2.60
2007,03,14,01,22,2.60
2007,03,14,01,23,2.60
2007,03,14,01,24,2.60
2007,03,14,01,25,2.60
2007,03,14,01,26,2.70
2007,03,14,01,27,2.80
2007,03,14,01,28,2.90
2007,03,14,01,29,3.00
2007,03,14,01,30,3.10
2007,03,14,01,31,3.20
2007,03,14,01,32,3.20
2007,03,14,01,33,3.20
2007,03,14,01,34,3.20
2007,03,14,01,35,3.20
2007,03,14,01,36,3.20
2007,03,14,01,37,3.20
2007,03,14,01,38,3.20
2007,03,14,01,39,3.20
2007,03,14,01,40,3.20
2007,03,14,01,41,3.20
2007,03,14,01,42,3.30
2007,03,14,01,43,3.30
2007,03,14,01,44,3.30
2007,03,14,01,45,3.30
2007,03,14,01,46,3.30
2007,03,14,01,47,3.30
2007,03,14,01,48,3.30
2007,03,14,01,49,3.30
2007,03,14,01,50,3.20
2007,03,14,01,51,3.20
2007,03,14,01,52,3.20
2007,03,14,01,53,3.10
2007,03,14,01,54,3.10
2007,03,14,01,55,3.10
2007,03,14,01,56,3.00
2007,03,14,01,57,2.90
2007,03,14,01,58,2.90
2007,03,14,01,59,2.80
2007,03,14,02,00,2.80
2007,03,14,02,01,2.70
2007,03,14,02,02,2.70
2007,03,14,02,03,2.60
2007,03,14,02,04,2.60
2007,03,14,02,05,2.60
2007,03,14,02,06,2.50
2007,03,14,02,07,2.50
2007,03,14,02,08,2.40
2007,03,14,02,09,2.40
2007,03,14,02,10,2.40
2007,03,14,02,11,2.30
2007,03,14,02,12,2.30
2007,03,14,02,13,2.30
2007,03,14,02,14,2.30
2007,03,14,02,15,2.30
2007,03,14,02,16,2.30
2007,03,14,02,17,2.20
2007,03,14,02,18,2.20
2007,03,14,02,19,2.20
2007,03,14,02,20,2.30
2007,03,14,02,21,2.30
2007,03,14,02,22,2.30
2007,03,14,02,23,2.40
2007,03,14,02,24,2.40
2007,03,14,02,25,2.30
2007,03,14,02,26,2.40
2007,03,14,02,27,2.40
2007,03,14,02,28,2.40
2007,03,14,02,29,2.50
2007,03,14,02,30,2.50
2007,03,14,02,31,2.50
2007,03,14,02,32,2.50
2007,03,14,02,33,2.60
2007,03,14,02,34,2.70
2007,03,14,02,35,2.70
2007,03,14,02,36,2.70
2007,03,14,02,37,2.80
2007,03,14,02,38,2.80
2007,03,14,02,39,2.80
2007,03,14,02,40,2.80
2007,03,14,02,41,2.90
2007,03,14,02,42,2.90
2007,03,14,02,43,2.90
2007,03,14,02,44,3.00
2007,03,14,02,45,3.00
2007,03,14,02,46,3.00
2007,03,14,02,47,3.00
2007,03,14,02,48,3.10
2007,03,14,02,49,3.00
2007,03,14,02,50,3.00
2007,03,14,02,51,3.00
2007,03,14,02,52,3.00
2007,03,14,02,53,3.00
2007,03,14,02,54,3.00
2007,03,14,02,55,3.00
2007,03,14,02,56,3.00
2007,03,14,02,57,3.10
2007,03,14,02,58,3.10
2007,03,14,02,59,3.00
2007,03,14,03,00,3.00
2007,03,14,03,01,3.00
2007,03,14,03,02,3.00
2007,03,14,03,03,3.00
2007,03,14,03,04,3.00
2007,03,14,03,05,3.00
2007,03,14,03,06,3.00
2007,03,14,03,07,2.90
2007,03,14,03,08,2.90
2007,03,14,03,09,2.90
2007,03,14,03,10,2.90
2007,03,14,03,11,2.90
2007,03,14,03,12,2.90
2007,03,14,03,13,2.90
2007,03,14,03,14,3.00
2007,03,14,03,15,3.00
2007,03,14,03,16,3.00
2007,03,14,03,17,3.00
2007,03,14,03,18,3.00
2007,03,14,03,19,3.00
2007,03,14,03,20,3.00
2007,03,14,03,21,3.00
2007,03,14,03,22,3.00
2007,03,14,03,23,3.00
2007,03,14,03,24,2.90
2007,03,14,03,25,2.90
2007,03,14,03,26,2.90
2007,03,14,03,27,2.90
2007,03,14,03,28,2.90
2007,03,14,03,29,2.80
2007,03,14,03,30,2.80
2007,03,14,03,31,2.70
2007,03,14,03,32,2.70
2007,03,14,03,33,2.60
2007,03,14,03,34,2.60
2007,03,14,03,35,2.50
2007,03,14,03,36,2.50
2007,03,14,03,37,2.40
2007,03,14,03,38,2.40
2007,03,14,03,39,2.30
2007,03,14,03,40,2.30
2007,03,14,03,41,2.20
2007,03,14,03,42,2.20
2007,03,14,03,43,2.10
2007,03,14,03,44,2.10
2007,03,14,03,45,2.00
2007,03,14,03,46,2.00
2007,03,14,03,47,1.90
2007,03,14,03,48,1.90
2007,03,14,03,49,1.80
2007,03,14,03,50,1.80
2007,03,14,03,51,1.80
2007,03,14,03,52,1.80
2007,03,14,03,53,1.80
2007,03,14,03,54,1.80
2007,03,14,03,55,1.80
2007,03,14,03,56,1.80
2007,03,14,03,57,1.80
2007,03,14,03,58,1.70
2007,03,14,03,59,1.70
2007,03,14,04,00,1.70
2007,03,14,04,01,1.70
2007,03,14,04,02,1.70
2007,03,14,04,03,1.70
2007,03,14,04,04,1.70
2007,03,14,04,05,1.70
2007,03,14,04,06,1.70
2007,03,14,04,07,1.60
2007,03,14,04,08,1.60
2007,03,14,04,09,1.60
2007,03,14,04,10,1.50
2007,03,14,04,11,1.50
2007,03,14,04,12,1.40
2007,03,14,04,13,1.40
2007,03,14,04,14,1.30
2007,03,14,04,15,1.30
2007,03,14,04,16,1.30
2007,03,14,04,17,1.30
2007,03,14,04,18,1.30
2007,03,14,04,19,1.30
2007,03,14,04,20,1.30
2007,03,14,04,21,1.30
2007,03,14,04,22,1.20
2007,03,14,04,23,1.20
2007,03,14,04,24,1.20
2007,03,14,04,25,1.10
2007,03,14,04,26,1.10
2007,03,14,04,27,1.10
2007,03,14,04,28,1.10
2007,03,14,04,29,1.10
2007,03,14,04,30,1.10
2007,03,14,04,31,1.20
2007,03,14,04,32,1.30
2007,03,14,04,33,1.30
2007,03,14,04,34,1.50
2007,03,14,04,35,1.70
2007,03,14,04,36,1.70
2007,03,14,04,37,1.80
2007,03,14,04,38,1.80
2007,03,14,04,39,1.80
2007,03,14,04,40,1.80
2007,03,14,04,41,1.80
2007,03,14,04,42,1.80
2007,03,14,04,43,1.80
2007,03,14,04,44,1.80
2007,03,14,04,45,1.80
2007,03,14,04,46,1.80
2007,03,14,04,47,1.80
2007,03,14,04,48,1.90
2007,03,14,04,49,1.90
2007,03,14,04,50,1.90
2007,03,14,04,51,2.00
2007,03,14,04,52,2.00
2007,03,14,04,53,2.00
2007,03,14,04,54,2.00
2007,03,14,04,55,2.00
2007,03,14,04,56,2.00
2007,03,14,04,57,2.00
2007,03,14,04,58,1.90
2007,03,14,04,59,1.90
2007,03,14,05,00,1.90
2007,03,14,05,01,1.90
2007,03,14,05,02,1.90
2007,03,14,05,03,1.90
2007,03,14,05,04,1.90
2007,03,14,05,05,1.90
2007,03,14,05,06,1.90
2007,03,14,05,07,1.90
2007,03,14,05,08,1.90
2007,03,14,05,09,2.00
2007,03,14,05,10,2.00
2007,03,14,05,11,2.00
2007,03,14,05,12,2.00
2007,03,14,05,13,2.00
2007,03,14,05,14,2.10
2007,03,14,05,15,2.10
2007,03,14,05,16,2.10
2007,03,14,05,17,2.10
2007,03,14,05,18,2.10
2007,03,14,05,19,2.10
2007,03,14,05,20,2.10
2007,03,14,05,21,2.10
2007,03,14,05,22,2.10
2007,03,14,05,23,2.10
2007,03,14,05,24,2.10
2007,03,14,05,25,2.10
2007,03,14,05,26,2.00
2007,03,14,05,27,2.00
2007,03,14,05,28,1.90
2007,03,14,05,29,1.90
2007,03,14,05,30,1.90
2007,03,14,05,31,1.90
2007,03,14,05,32,1.90
2007,03,14,05,33,1.90
2007,03,14,05,34,2.00
2007,03,14,05,35,2.10
2007,03,14,05,36,2.00
2007,03,14,05,37,2.00
2007,03,14,05,38,1.90
2007,03,14,05,39,1.90
2007,03,14,05,40,1.80
2007,03,14,05,41,1.70
2007,03,14,05,42,1.70
2007,03,14,05,43,1.70
2007,03,14,05,44,1.70
2007,03,14,05,45,1.70
2007,03,14,05,46,1.70
2007,03,14,05,47,1.70
2007,03,14,05,48,1.70
2007,03,14,05,49,1.70
2007,03,14,05,50,1.70
2007,03,14,05,51,1.70
2007,03,14,05,52,1.70
2007,03,14,05,53,1.70
2007,03,14,05,54,1.80
2007,03,14,05,55,1.80
2007,03,14,05,56,1.80
2007,03,14,05,57,1.80
2007,03,14,05,58,1.90
2007,03,14,05,59,1.90
2007,03,14,06,00,1.90
2007,03,14,06,01,2.00
2007,03,14,06,02,2.00
2007,03,14,06,03,2.00
2007,03,14,06,04,2.10
2007,03,14,06,05,2.10
2007,03,14,06,06,2.00
2007,03,14,06,07,2.00
2007,03,14,06,08,1.90
2007,03,14,06,09,1.90
2007,03,14,06,10,1.80
2007,03,14,06,11,1.80
2007,03,14,06,12,1.80
2007,03,14,06,13,1.80
2007,03,14,06,14,1.80
2007,03,14,06,15,1.80
2007,03,14,06,16,1.80
2007,03,14,06,17,1.80
2007,03,14,06,18,1.80
2007,03,14,06,19,1.80
2007,03,14,06,20,1.80
2007,03,14,06,21,1.80
2007,03,14,06,22,1.80
2007,03,14,06,23,1.80
2007,03,14,06,24,1.80
2007,03,14,06,25,1.80
2007,03,14,06,26,1.80
2007,03,14,06,27,1.80
2007,03,14,06,28,1.80
2007,03,14,06,29,1.80
2007,03,14,06,30,1.80
2007,03,14,06,31,1.80
2007,03,14,06,32,1.80
2007,03,14,06,33,1.80
2007,03,14,06,34,1.80
2007,03,14,06,35,1.70
2007,03,14,06,36,1.70
2007,03,14,06,37,1.70
2007,03,14,06,38,1.70
2007,03,14,06,39,1.70
2007,03,14,06,40,1.70
2007,03,14,06,41,1.70
2007,03,14,06,42,1.70
2007,03,14,06,43,1.70
2007,03,14,06,44,1.60
2007,03,14,06,45,1.60
2007,03,14,06,46,1.60
2007,03,14,06,47,1.60
2007,03,14,06,48,1.60
2007,03,14,06,49,1.60
2007,03,14,06,50,1.60
2007,03,14,06,51,1.60
2007,03,14,06,52,1.60
2007,03,14,06,53,1.70
2007,03,14,06,54,1.70
2007,03,14,06,55,1.70
2007,03,14,06,56,1.80
2007,03,14,06,57,1.80
2007,03,14,06,58,1.80
2007,03,14,06,59,1.80
2007,03,14,07,00,1.80
2007,03,14,07,01,1.80
2007,03,14,07,02,1.80
2007,03,14,07,03,1.80
2007,03,14,07,04,1.80
2007,03,14,07,05,1.80
2007,03,14,07,06,1.80
2007,03,14,07,07,1.80
2007,03,14,07,08,1.80
2007,03,14,07,09,1.80
2007,03,14,07,10,1.80
2007,03,14,07,11,1.80
2007,03,14,07,12,1.70
2007,03,14,07,13,1.70
2007,03,14,07,14,1.80
2007,03,14,07,15,1.80
2007,03,14,07,16,1.80
2007,03,14,07,17,1.70
2007,03,14,07,18,1.70
2007,03,14,07,19,1.70
2007,03,14,07,20,1.70
2007,03,14,07,21,1.70
2007,03,14,07,22,1.70
2007,03,14,07,23,1.70
2007,03,14,07,24,1.70
2007,03,14,07,25,1.70
2007,03,14,07,26,1.60
2007,03,14,07,27,1.60
2007,03,14,07,28,1.60
2007,03,14,07,29,1.50
2007,03,14,07,30,1.50
2007,03,14,07,31,1.40
2007,03,14,07,32,1.40
2007,03,14,07,33,1.40
2007,03,14,07,34,1.40
2007,03,14,07,35,1.30
2007,03,14,07,36,1.30
2007,03,14,07,37,1.30
2007,03,14,07,38,1.30
2007,03,14,07,39,1.30
2007,03,14,07,40,1.20
2007,03,14,07,41,1.20
2007,03,14,07,42,1.20
2007,03,14,07,43,1.10
2007,03,14,07,44,1.10
2007,03,14,07,45,1.10
2007,03,14,07,46,1.10
2007,03,14,07,47,1.10
2007,03,14,07,48,1.10
2007,03,14,07,49,1.10
2007,03,14,07,50,1.00
2007,03,14,07,51,1.00
2007,03,14,07,52,0.90
2007,03,14,07,53,0.90
2007,03,14,07,54,0.90
2007,03,14,07,55,0.90
2007,03,14,07,56,0.80
2007,03,14,07,57,0.80
2007,03,14,07,58,0.80
2007,03,14,07,59,0.70
2007,03,14,08,00,0.70
2007,03,14,08,01,0.60
2007,03,14,08,02,0.60
2007,03,14,08,03,0.50
2007,03,14,08,04,0.50
2007,03,14,08,05,0.50
2007,03,14,08,06,0.40
2007,03,14,08,07,0.40
2007,03,14,08,08,0.40
2007,03,14,08,09,0.40
2007,03,14,08,10,0.30
2007,03,14,08,11,0.30
2007,03,14,08,12,0.40
2007,03,14,08,13,0.40
2007,03,14,08,14,0.40
2007,03,14,08,15,0.50
2007,03,14,08,16,0.60
2007,03,14,08,17,0.60
2007,03,14,08,18,0.70
2007,03,14,08,19,0.80
2007,03,14,08,20,0.80
2007,03,14,08,21,0.80
2007,03,14,08,22,0.80
2007,03,14,08,23,0.80
2007,03,14,08,24,0.80
2007,03,14,08,25,0.80
2007,03,14,08,26,0.80
2007,03,14,08,27,0.80
2007,03,14,08,28,0.80
2007,03,14,08,29,0.80
2007,03,14,08,30,0.80
2007,03,14,08,31,0.70
2007,03,14,08,32,0.70
2007,03,14,08,33,0.70
2007,03,14,08,34,0.70
2007,03,14,08,35,0.70
2007,03,14,08,36,0.70
2007,03,14,08,37,0.80
2007,03,14,08,38,0.70
2007,03,14,08,39,0.70
2007,03,14,08,40,0.70
2007,03,14,08,41,0.70
2007,03,14,08,42,0.70
2007,03,14,08,43,0.80
2007,03,14,08,44,0.90
2007,03,14,08,45,1.00
2007,03,14,08,46,1.10
2007,03,14,08,47,1.10
2007,03,14,08,48,1.20
2007,03,14,08,49,1.20
2007,03,14,08,50,1.20
2007,03,14,08,51,1.30
2007,03,14,08,52,1.30
2007,03,14,08,53,1.30
2007,03,14,08,54,1.30
2007,03,14,08,55,1.40
2007,03,14,08,56,1.50
2007,03,14,08,57,1.60
2007,03,14,08,58,1.60
2007,03,14,08,59,1.60
2007,03,14,09,00,1.70
2007,03,14,09,01,1.70
2007,03,14,09,02,1.70
2007,03,14,09,03,1.80
2007,03,14,09,04,1.80
2007,03,14,09,05,1.80
2007,03,14,09,06,1.90
2007,03,14,09,07,1.90
2007,03,14,09,08,2.00
2007,03,14,09,09,2.00
2007,03,14,09,10,2.10
2007,03,14,09,11,2.20
2007,03,14,09,12,2.20
2007,03,14,09,13,2.30
2007,03,14,09,14,2.30
2007,03,14,09,15,2.40
2007,03,14,09,16,2.40
2007,03,14,09,17,2.40
2007,03,14,09,18,2.50
2007,03,14,09,19,2.60
2007,03,14,09,20,2.60
2007,03,14,09,21,2.60
2007,03,14,09,22,2.70
2007,03,14,09,23,2.70
2007,03,14,09,24,2.80
2007,03,14,09,25,2.80
2007,03,14,09,26,2.90
2007,03,14,09,27,3.00
2007,03,14,09,28,3.00
2007,03,14,09,29,3.10
2007,03,14,09,30,3.10
2007,03,14,09,31,3.10
2007,03,14,09,32,3.20
2007,03,14,09,33,3.20
2007,03,14,09,34,3.20
2007,03,14,09,35,3.20
2007,03,14,09,36,3.20
2007,03,14,09,37,3.20
2007,03,14,09,38,3.20
2007,03,14,09,39,3.30
2007,03,14,09,40,3.30
2007,03,14,09,41,3.30
2007,03,14,09,42,3.40
2007,03,14,09,43,3.40
2007,03,14,09,44,3.40
2007,03,14,09,45,3.40
2007,03,14,09,46,3.40
2007,03,14,09,47,3.50
2007,03,14,09,48,3.50
2007,03,14,09,49,3.50
2007,03,14,09,50,3.60
2007,03,14,09,51,3.60
2007,03,14,09,52,3.60
2007,03,14,09,53,3.60
2007,03,14,09,54,3.70
2007,03,14,09,55,3.70
2007,03,14,09,56,3.70
2007,03,14,09,57,3.70
2007,03,14,09,58,3.70
2007,03,14,09,59,3.80
2007,03,14,10,00,3.80
2007,03,14,10,01,3.80
2007,03,14,10,02,3.90
2007,03,14,10,03,3.80
2007,03,14,10,04,3.90
2007,03,14,10,05,3.90
2007,03,14,10,06,3.90
2007,03,14,10,07,3.90
2007,03,14,10,08,3.90
2007,03,14,10,09,4.00
2007,03,14,10,10,4.00
2007,03,14,10,11,4.00
2007,03,14,10,12,4.00
2007,03,14,10,13,4.10
2007,03,14,10,14,4.10
2007,03,14,10,15,4.10
2007,03,14,10,16,4.10
2007,03,14,10,17,4.10
2007,03,14,10,18,4.10
2007,03,14,10,19,4.10
2007,03,14,10,20,4.20
2007,03,14,10,21,4.20
2007,03,14,10,22,4.20
2007,03,14,10,23,4.20
2007,03,14,10,24,4.20
2007,03,14,10,25,4.20
2007,03,14,10,26,4.30
2007,03,14,10,27,4.30
2007,03,14,10,28,4.30
2007,03,14,10,29,4.30
2007,03,14,10,30,4.30
2007,03,14,10,31,4.30
2007,03,14,10,32,4.30
2007,03,14,10,33,4.30
2007,03,14,10,34,4.30
2007,03,14,10,35,4.40
2007,03,14,10,36,4.40
2007,03,14,10,37,4.40
2007,03,14,10,38,4.40
2007,03,14,10,39,4.40
2007,03,14,10,40,4.50
2007,03,14,10,41,4.50
2007,03,14,10,42,4.60
2007,03,14,10,43,4.60
2007,03,14,10,44,4.60
2007,03,14,10,45,4.60
2007,03,14,10,46,4.60
2007,03,14,10,47,4.60
2007,03,14,10,48,4.70
2007,03,14,10,49,4.70
2007,03,14,10,50,4.70
2007,03,14,10,51,4.80
2007,03,14,10,52,4.80
2007,03,14,10,53,4.80
2007,03,14,10,54,4.80
2007,03,14,10,55,4.80
2007,03,14,10,56,4.80
2007,03,14,10,57,4.80
2007,03,14,10,58,4.90
2007,03,14,10,59,4.90
2007,03,14,11,00,4.90
2007,03,14,11,01,5.00
2007,03,14,11,02,5.00
2007,03,14,11,03,5.10
2007,03,14,11,04,5.10
2007,03,14,11,05,5.10
2007,03,14,11,06,5.10
2007,03,14,11,07,5.10
2007,03,14,11,08,5.10
2007,03,14,11,09,5.10
2007,03,14,11,10,5.00
2007,03,14,11,11,5.00
2007,03,14,11,12,5.00
2007,03,14,11,13,5.00
2007,03,14,11,14,5.00
2007,03,14,11,15,5.00
2007,03,14,11,16,5.00
2007,03,14,11,17,5.10
2007,03,14,11,18,5.10
2007,03,14,11,19,5.10
2007,03,14,11,20,5.10
2007,03,14,11,21,5.20
2007,03,14,11,22,5.20
2007,03,14,11,23,5.30
2007,03,14,11,24,5.40
2007,03,14,11,25,5.40
2007,03,14,11,26,5.40
2007,03,14,11,27,5.40
2007,03,14,11,28,5.30
2007,03,14,11,29,5.30
2007,03,14,11,30,5.30
2007,03,14,11,31,5.30
2007,03,14,11,32,5.30
2007,03,14,11,33,5.40
2007,03,14,11,34,5.50
2007,03,14,11,35,5.50
2007,03,14,11,36,5.50
2007,03,14,11,37,5.40
2007,03,14,11,38,5.40
2007,03,14,11,39,5.40
2007,03,14,11,40,5.40
2007,03,14,11,41,5.50
2007,03,14,11,42,5.50
2007,03,14,11,43,5.60
2007,03,14,11,44,5.70
2007,03,14,11,45,5.80
2007,03,14,11,46,5.90
2007,03,14,11,47,5.90
2007,03,14,11,48,5.90
2007,03,14,11,49,6.00
2007,03,14,11,50,6.00
2007,03,14,11,51,6.00
2007,03,14,11,52,6.10
2007,03,14,11,53,6.10
2007,03,14,11,54,6.10
2007,03,14,11,55,6.00
2007,03,14,11,56,5.90
2007,03,14,11,57,5.90
2007,03,14,11,58,5.80
2007,03,14,11,59,5.80
2007,03,14,12,00,5.80
2007,03,14,12,01,5.80
2007,03,14,12,02,5.80
2007,03,14,12,03,5.80
2007,03,14,12,04,5.90
2007,03,14,12,05,5.90
2007,03,14,12,06,6.00
2007,03,14,12,07,6.10
2007,03,14,12,08,6.10
2007,03,14,12,09,6.10
2007,03,14,12,10,6.10
2007,03,14,12,11,6.10
2007,03,14,12,12,6.10
2007,03,14,12,13,6.10
2007,03,14,12,14,6.10
2007,03,14,12,15,6.10
2007,03,14,12,16,6.20
2007,03,14,12,17,6.20
2007,03,14,12,18,6.20
2007,03,14,12,19,6.20
2007,03,14,12,20,6.30
2007,03,14,12,21,6.30
2007,03,14,12,22,6.30
2007,03,14,12,23,6.40
2007,03,14,12,24,6.40
2007,03,14,12,25,6.40
2007,03,14,12,26,6.50
2007,03,14,12,27,6.50
2007,03,14,12,28,6.50
2007,03,14,12,29,6.50
2007,03,14,12,30,6.40
2007,03,14,12,31,6.40
2007,03,14,12,32,6.40
2007,03,14,12,33,6.30
2007,03,14,12,34,6.30
2007,03,14,12,35,6.30
2007,03,14,12,36,6.30
2007,03,14,12,37,6.40
2007,03,14,12,38,6.30
2007,03,14,12,39,6.30
2007,03,14,12,40,6.30
2007,03,14,12,41,6.30
2007,03,14,12,42,6.30
2007,03,14,12,43,6.30
2007,03,14,12,44,6.30
2007,03,14,12,45,6.30
2007,03,14,12,46,6.30
2007,03,14,12,47,6.20
2007,03,14,12,48,6.20
2007,03,14,12,49,6.20
2007,03,14,12,50,6.20
2007,03,14,12,51,6.20
2007,03,14,12,52,6.10
2007,03,14,12,53,6.10
2007,03,14,12,54,6.10
2007,03,14,12,55,6.20
2007,03,14,12,56,6.20
2007,03,14,12,57,6.20
2007,03,14,12,58,6.30
2007,03,14,12,59,6.30
2007,03,14,13,00,6.30
2007,03,14,13,01,6.30
2007,03,14,13,02,6.40
2007,03,14,13,03,6.50
2007,03,14,13,04,6.50
2007,03,14,13,05,6.60
2007,03,14,13,06,6.60
2007,03,14,13,07,6.60
2007,03,14,13,08,6.70
2007,03,14,13,09,6.70
2007,03,14,13,10,6.70
2007,03,14,13,11,6.70
2007,03,14,13,12,6.80
2007,03,14,13,13,6.80
2007,03,14,13,14,6.80
2007,03,14,13,15,6.80
2007,03,14,13,16,6.80
2007,03,14,13,17,6.90
2007,03,14,13,18,6.90
2007,03,14,13,19,6.90
2007,03,14,13,20,6.90
2007,03,14,13,21,6.90
2007,03,14,13,22,7.00
2007,03,14,13,23,7.00
2007,03,14,13,24,7.10
2007,03,14,13,25,7.20
2007,03,14,13,26,7.20
2007,03,14,13,27,7.30
2007,03,14,13,28,7.30
2007,03,14,13,29,7.20
2007,03,14,13,30,7.20
2007,03,14,13,31,7.20
2007,03,14,13,32,7.20
2007,03,14,13,33,7.20
2007,03,14,13,34,7.20
2007,03,14,13,35,7.20
2007,03,14,13,36,7.20
2007,03,14,13,37,7.20
2007,03,14,13,38,7.20
2007,03,14,13,39,7.20
2007,03,14,13,40,7.20
2007,03,14,13,41,7.10
2007,03,14,13,42,7.10
2007,03,14,13,43,7.00
2007,03,14,13,44,7.00
2007,03,14,13,45,6.90
2007,03,14,13,46,7.00
2007,03,14,13,47,7.00
2007,03,14,13,48,7.00
2007,03,14,13,49,7.00
2007,03,14,13,50,7.10
2007,03,14,13,51,7.10
2007,03,14,13,52,7.10
2007,03,14,13,53,7.20
2007,03,14,13,54,7.40
2007,03,14,13,55,7.40
2007,03,14,13,56,7.50
2007,03,14,13,57,7.60
2007,03,14,13,58,7.70
2007,03,14,13,59,7.70
2007,03,14,14,00,7.80
2007,03,14,14,01,7.80
2007,03,14,14,02,7.90
2007,03,14,14,03,7.80
2007,03,14,14,04,7.80
2007,03,14,14,05,7.80
2007,03,14,14,06,7.80
2007,03,14,14,07,7.70
2007,03,14,14,08,7.60
2007,03,14,14,09,7.50
2007,03,14,14,10,7.50
2007,03,14,14,11,7.40
2007,03,14,14,12,7.40
2007,03,14,14,13,7.40
2007,03,14,14,14,7.40
2007,03,14,14,15,7.40
2007,03,14,14,16,7.40
2007,03,14,14,17,7.50
2007,03,14,14,18,7.60
2007,03,14,14,19,7.70
2007,03,14,14,20,7.90
2007,03,14,14,21,8.10
2007,03,14,14,22,8.20
2007,03,14,14,23,8.30
2007,03,14,14,24,8.30
2007,03,14,14,25,8.30
2007,03,14,14,26,8.30
2007,03,14,14,27,8.30
2007,03,14,14,28,8.20
2007,03,14,14,29,8.10
2007,03,14,14,30,8.10
2007,03,14,14,31,8.10
2007,03,14,14,32,8.10
2007,03,14,14,33,8.10
2007,03,14,14,34,8.10
2007,03,14,14,35,8.10
2007,03,14,14,36,8.10
2007,03,14,14,37,8.20
2007,03,14,14,38,8.20
2007,03,14,14,39,8.20
2007,03,14,14,40,8.10
2007,03,14,14,41,8.10
2007,03,14,14,42,8.00
2007,03,14,14,43,7.90
2007,03,14,14,44,7.90
2007,03,14,14,45,7.90
2007,03,14,14,46,7.90
2007,03,14,14,47,7.90
2007,03,14,14,48,7.90
2007,03,14,14,49,8.00
2007,03,14,14,50,8.00
2007,03,14,14,51,8.00
2007,03,14,14,52,8.00
2007,03,14,14,53,8.00
2007,03,14,14,54,8.10
2007,03,14,14,55,8.10
2007,03,14,14,56,8.10
2007,03,14,14,57,8.10
2007,03,14,14,58,8.00
2007,03,14,14,59,7.90
2007,03,14,15,00,7.90
2007,03,14,15,01,7.90
2007,03,14,15,02,7.90
2007,03,14,15,03,7.90
2007,03,14,15,04,7.90
2007,03,14,15,05,7.90
2007,03,14,15,06,7.90
2007,03,14,15,07,7.90
2007,03,14,15,08,7.90
2007,03,14,15,09,7.90
2007,03,14,15,10,7.90
2007,03,14,15,11,7.80
2007,03,14,15,12,7.80
2007,03,14,15,13,7.80
2007,03,14,15,14,7.80
2007,03,14,15,15,7.80
2007,03,14,15,16,7.80
2007,03,14,15,17,7.70
2007,03,14,15,18,7.70
2007,03,14,15,19,7.80
2007,03,14,15,20,7.80
2007,03,14,15,21,7.90
2007,03,14,15,22,8.10
2007,03,14,15,23,8.20
2007,03,14,15,24,8.40
2007,03,14,15,25,8.50
2007,03,14,15,26,8.60
2007,03,14,15,27,8.70
2007,03,14,15,28,8.80
2007,03,14,15,29,8.80
2007,03,14,15,30,8.70
2007,03,14,15,31,8.70
2007,03,14,15,32,8.60
2007,03,14,15,33,8.50
2007,03,14,15,34,8.50
2007,03,14,15,35,8.50
2007,03,14,15,36,8.50
2007,03,14,15,37,8.50
2007,03,14,15,38,8.60
2007,03,14,15,39,8.70
2007,03,14,15,40,8.80
2007,03,14,15,41,8.70
2007,03,14,15,42,8.70
2007,03,14,15,43,8.80
2007,03,14,15,44,8.80
2007,03,14,15,45,8.80
2007,03,14,15,46,8.80
2007,03,14,15,47,8.90
2007,03,14,15,48,9.00
2007,03,14,15,49,9.10
2007,03,14,15,50,9.20
2007,03,14,15,51,9.40
2007,03,14,15,52,9.60
2007,03,14,15,53,9.80
2007,03,14,15,54,9.90
2007,03,14,15,55,10.00
2007,03,14,15,56,10.10
2007,03,14,15,57,10.00
2007,03,14,15,58,10.00
2007,03,14,15,59,10.10
2007,03,14,16,00,10.10
2007,03,14,16,01,10.00
2007,03,14,16,02,10.00
2007,03,14,16,03,10.10
2007,03,14,16,04,10.20
2007,03,14,16,05,10.20
2007,03,14,16,06,10.30
2007,03,14,16,07,10.40
2007,03,14,16,08,10.50
2007,03,14,16,09,10.50
2007,03,14,16,10,10.50
2007,03,14,16,11,10.50
2007,03,14,16,12,10.40
2007,03,14,16,13,10.40
2007,03,14,16,14,10.40
2007,03,14,16,15,10.30
2007,03,14,16,16,10.20
2007,03,14,16,17,10.00
2007,03,14,16,18,9.80
2007,03,14,16,19,9.70
2007,03,14,16,20,9.70
2007,03,14,16,21,9.60
2007,03,14,16,22,9.60
2007,03,14,16,23,9.60
2007,03,14,16,24,9.50
2007,03,14,16,25,9.30
2007,03,14,16,26,9.20
2007,03,14,16,27,9.00
2007,03,14,16,28,8.80
2007,03,14,16,29,8.70
2007,03,14,16,30,8.60
2007,03,14,16,31,8.50
2007,03,14,16,32,8.40
2007,03,14,16,33,8.40
2007,03,14,16,34,8.40
2007,03,14,16,35,8.50
2007,03,14,16,36,8.60
2007,03,14,16,37,8.70
2007,03,14,16,38,8.80
2007,03,14,16,39,8.80
2007,03,14,16,40,8.90
2007,03,14,16,41,8.80
2007,03,14,16,42,8.80
2007,03,14,16,43,8.70
2007,03,14,16,44,8.70
2007,03,14,16,45,8.60
2007,03,14,16,46,8.60
2007,03,14,16,47,8.50
2007,03,14,16,48,8.50
2007,03,14,16,49,8.40
2007,03,14,16,50,8.40
2007,03,14,16,51,8.40
2007,03,14,16,52,8.30
2007,03,14,16,53,8.30
2007,03,14,16,54,8.20
2007,03,14,16,55,8.20
2007,03,14,16,56,8.30
2007,03,14,16,57,8.40
2007,03,14,16,58,8.40
2007,03,14,16,59,8.40
2007,03,14,17,00,8.50
2007,03,14,17,01,8.50
2007,03,14,17,02,8.50
2007,03,14,17,03,8.40
2007,03,14,17,04,8.40
2007,03,14,17,05,8.40
2007,03,14,17,06,8.40
2007,03,14,17,07,8.30
2007,03,14,17,08,8.20
2007,03,14,17,09,8.20
2007,03,14,17,10,8.10
2007,03,14,17,11,8.10
2007,03,14,17,12,8.00
2007,03,14,17,13,8.10
2007,03,14,17,14,8.10
2007,03,14,17,15,8.10
2007,03,14,17,16,8.30
2007,03,14,17,17,8.40
2007,03,14,17,18,8.50
2007,03,14,17,19,8.60
2007,03,14,17,20,8.70
2007,03,14,17,21,8.90
2007,03,14,17,22,9.10
2007,03,14,17,23,9.20
2007,03,14,17,24,9.40
2007,03,14,17,25,9.50
2007,03,14,17,26,9.60
2007,03,14,17,27,9.70
2007,03,14,17,28,9.80
2007,03,14,17,29,9.80
2007,03,14,17,30,9.90
2007,03,14,17,31,9.80
2007,03,14,17,32,9.80
2007,03,14,17,33,9.80
2007,03,14,17,34,9.80
2007,03,14,17,35,9.90
2007,03,14,17,36,10.00
2007,03,14,17,37,10.10
2007,03,14,17,38,10.20
2007,03,14,17,39,10.30
2007,03,14,17,40,10.40
2007,03,14,17,41,10.50
2007,03,14,17,42,10.60
2007,03,14,17,43,10.70
2007,03,14,17,44,10.70
2007,03,14,17,45,10.60
2007,03,14,17,46,10.60
2007,03,14,17,47,10.60
2007,03,14,17,48,10.60
2007,03,14,17,49,10.60
2007,03,14,17,50,10.60
2007,03,14,17,51,10.60
2007,03,14,17,52,10.60
2007,03,14,17,53,10.70
2007,03,14,17,54,10.70
2007,03,14,17,55,10.60
2007,03,14,17,56,10.40
2007,03,14,17,57,10.20
2007,03,14,17,58,10.00
2007,03,14,17,59,9.80
2007,03,14,18,00,9.70
2007,03,14,18,01,9.70
2007,03,14,18,02,9.60
2007,03,14,18,03,9.60
2007,03,14,18,04,9.50